Flag for Canada Weather past 2 weeks in Saint John, New Brunswick, Canada

Now
54 °F

Clear.


Feels Like: 54 °F
Forecast: 56 / 76 °F
Wind: 2 mph from Northeast

Location: Saint John

Current Time: Aug 1, 2015 at 3:28:59 AM

Latest Report: Aug 1, 2015 at 2:00 AM


Visibility: 15 mi

Pressure: 29.73 "Hg

Humidity: 100%

Dew point: 54 °F

Location of Saint JohnLocation

Historic Weather in Saint John — Graph

°F

Saint John temperature yesterday

Maximum temperature yesterday: 73 °F (at 2:00 PM)
Minimum temperature yesterday: 61 °F (at 6:00 AM)
Average temperature yesterday: 67 °F

Past Weeks' High & Low Weather Summary

 TemperatureHumidityPressure
High79 °F (Jul 29, 2:00 PM)100% (Jul 17, 5:00 AM)30.11 "Hg (Jul 17, 5:00 AM)
Low41 °F (Jul 17, 5:00 AM)34% (Jul 17, 3:00 PM)29.54 "Hg (Jul 22, 7:00 AM)
Average62 °F86%29.88 "Hg
* Reported Jul 17 1:00 AM — Aug 1 1:00 AM, Saint John, Weather by CustomWeather, © 2015

Note: Actual official high and low records may vary slightly from our data, if they occured in-between our weather recording intervals... More about our weather records

Advertising

Saint John weather history for previous 24 hours

 ConditionsComfort  
Time TempWeatherWind HumidityBarometerVisibility
1:00 AM
Sat, Aug 1
54 °FClear.No wind100%29.73 "Hg15 mi
12:00 AM59 °FPassing clouds.2 mph94%29.72 "Hg15 mi
11:00 PM
Fri, Jul 31
61 °FPassing clouds.3 mph88%29.71 "Hg15 mi
10:00 PM63 °FPassing clouds.6 mph83%29.70 "Hg15 mi
9:00 PM66 °FPassing clouds.5 mph73%29.68 "Hg15 mi
8:00 PM70 °FPassing clouds.9 mph69%29.66 "Hg15 mi
7:00 PM70 °FPassing clouds.8 mph69%29.66 "Hg15 mi
6:00 PM72 °FPassing clouds.14 mph69%29.65 "Hg15 mi
5:00 PM73 °FPassing clouds.12 mph69%29.65 "Hg15 mi
4:00 PM73 °FScattered clouds.14 mph74%29.66 "Hg15 mi
3:00 PM72 °FScattered clouds.16 mph83%29.67 "Hg15 mi
2:00 PM73 °FScattered clouds.14 mph74%29.67 "Hg15 mi
1:00 PM70 °FPassing clouds.13 mph83%29.69 "Hg15 mi
12:00 PM66 °FFog.9 mph94%29.70 "Hg3 mi
11:00 AM66 °FFog.12 mph94%29.70 "Hg1 mi
10:00 AM66 °FFog.7 mph100%29.70 "Hg3 mi
9:00 AM64 °FFog.3 mph100%29.70 "Hg0 mi
8:00 AM61 °FFog.5 mph100%29.70 "Hg1 mi
7:00 AM61 °FLight rain. Fog.6 mph100%29.68 "Hg1 mi
6:00 AM61 °FLight rain. Fog.7 mph100%29.68 "Hg1 mi
5:00 AM63 °FLight rain. Fog.7 mph100%29.68 "Hg1 mi
4:00 AM63 °FLight rain. Fog.7 mph100%29.69 "Hg1 mi
3:00 AM64 °FLight rain. Fog.10 mph100%29.71 "Hg1 mi
Weather by CustomWeather, © 2015

See weather overviewHow to use our weather pages